Location: Partizánske
(48.6285°N, 18.3769°E)
Time: 12:02:54
(UTC+02:00)

Envisat - Visible Passes

Search period start: 17 May 2022 00:00
Search period end: 27 May 2022 00:00
Orbit: 764 x 765 km, 98.2° (Epoch: 16 May)

Date Brightness Start Highest point End Pass type
(mag) Time Alt. Az. Time Alt. Az. Time Alt. Az.
17 May 5.7 04:06:38 10° NE 04:09:31 15° E 04:12:24 10° ESE visible
20 May 5.9 03:55:46 10° ENE 03:57:37 12° E 03:59:27 10° ESE visible
25 May 5.7 04:08:10 10° NE 04:11:15 16° E 04:14:19 10° SE visible
